Weather History for Preston, MN

Change the Weather History Date:

Wednesday, February 5, 2014

  Actual Average (KRST) Record (KRST)
Temperature  
Mean Temperature 0 °F 17 °F  
Max Temperature 6 °F 25 °F 48 °F (1946)
Min Temperature -6 °F 9 °F -29 °F (1979)
Degree Days  
Heating Degree Days 64 48  
Month to date heating degree days 240  
Since 1 July heating degree days 4848  
Cooling Degree Days 0 0  
Month to date cooling degree days 0  
Year to date cooling degree days 0  
Moisture  
Dew Point -5 °F    
Average Humidity 74    
Maximum Humidity 81    
Minimum Humidity 66    
Precipitation  
Precipitation 0.00 in 0.02 in 0.41 in (1946)
Month to date precipitation 0.13  
Year to date precipitation 0.99  
Snow  
Snow 0.00 in 0.40 in 4.00 in (1916)
Month to date snowfall 1.8  
Since 1 July snowfall 33.2  
Snow Depth -    
Sea Level Pressure  
Sea Level Pressure 30.39 in    
Wind  
Wind Speed 13 mph (NNW)    
Max Wind Speed 18 mph    
Max Gust Speed 23 mph    
Visibility 7 miles    
Events Snow    
T = Trace of Precipitation, MM = Missing Value Source: NWS Daily Summary

Daily Weather History Graph

Daily Weather History Graph

Search for Another Location

Airport:

Trip Planner

Search our weather history database for the weather conditions in past years. The results will help you decide how hot, cold, wet, or windy it might be!

Date:

Astronomy

Feb. 05, 2014 Rise Set
Actual Time 7:20 AM CST 5:25 PM CST
Civil Twilight 6:50 AM CST 5:55 PM CST
Nautical Twilight 6:16 AM CST 6:29 PM CST
Astronomical Twilight 5:42 AM CST 7:03 PM CST
Moon 10:22 AM CST (2/5) No Moon Set
Length of Visible Light 11h 05m
Length of Day
10h 04m
Waxing Crescent, 39% of the Moon is Illuminated
Feb 5
Waxing Crescent
Feb 6
First Quarter
Feb 14
Full
Feb 22
Last Quarter
Mar 1
New

Hourly Weather History & Observations

Time (CST) Temp. Windchill Dew Point Humidity Pressure Visibility Wind Dir Wind Speed Gust Speed Precip Events Conditions
12:14 AM 6.6 °F -9.5 °F -2.2 °F 67% 30.29 in 10.0 mi North 12.7 mph 18.4 mph N/A   Overcast
12:34 AM 6.6 °F -8.8 °F -2.2 °F 67% 30.29 in 10.0 mi North 11.5 mph - N/A   Overcast
12:54 AM 6.6 °F -7.1 °F -2.2 °F 67% 30.30 in 10.0 mi North 9.2 mph 16.1 mph N/A   Overcast
1:14 AM 6.4 °F -9.8 °F -2.2 °F 68% 30.31 in 10.0 mi North 12.7 mph 17.3 mph N/A   Overcast
1:34 AM 6.1 °F -13.3 °F -2.2 °F 69% 30.30 in 10.0 mi North 18.4 mph 21.9 mph N/A   Overcast
1:54 AM 5.5 °F -14.0 °F -2.2 °F 70% 30.31 in 5.0 mi North 18.4 mph 21.9 mph N/A Snow Light Snow
2:14 AM 4.6 °F -14.6 °F -1.3 °F 76% 30.30 in 2.0 mi North 17.3 mph - N/A Snow Light Snow
2:34 AM 4.1 °F -13.4 °F -1.3 °F 78% 30.31 in 2.5 mi North 13.8 mph - N/A Snow Light Snow
2:55 AM 3.7 °F -13.2 °F -1.7 °F 78% 30.31 in 3.0 mi North 12.7 mph - N/A Snow Light Snow
3:14 AM 3.2 °F -15.3 °F -2.2 °F 78% 30.31 in 4.0 mi North 15.0 mph 20.7 mph N/A Snow Light Snow
3:34 AM 3.0 °F -13.3 °F -2.4 °F 78% 30.31 in 5.0 mi NNW 11.5 mph 19.6 mph N/A   Haze
3:54 AM 2.8 °F -15.0 °F -2.6 °F 78% 30.31 in 5.0 mi North 13.8 mph 19.6 mph N/A Snow Light Snow
4:15 AM 2.3 °F -13.4 °F -3.3 °F 77% 30.31 in 5.0 mi North 10.4 mph - N/A   Haze
4:34 AM 1.9 °F -16.9 °F -3.6 °F 77% 30.31 in 5.0 mi North 15.0 mph 21.9 mph N/A   Haze
4:55 AM 1.4 °F -17.6 °F -4.0 °F 78% 30.31 in 5.0 mi North 15.0 mph 19.6 mph N/A   Haze
5:14 AM 1.2 °F -17.1 °F -4.4 °F 77% 30.32 in 5.0 mi NNW 13.8 mph 18.4 mph N/A Snow Light Snow
5:35 AM 1.0 °F -18.0 °F -4.7 °F 77% 30.33 in 5.0 mi NNW 15.0 mph 18.4 mph N/A   Haze
5:54 AM 0.5 °F -18.0 °F -4.9 °F 78% 30.33 in 5.0 mi North 13.8 mph 18.4 mph N/A   Haze
6:15 AM 0.3 °F -18.3 °F -5.4 °F 77% 30.34 in 7.0 mi North 13.8 mph 23.0 mph N/A Snow Light Snow
6:34 AM 0.3 °F -16.7 °F -5.3 °F 77% 30.34 in 7.0 mi NNW 11.5 mph - N/A   Overcast
6:54 AM 0.3 °F -17.5 °F -5.3 °F 77% 30.34 in 10.0 mi NNW 12.7 mph 19.6 mph N/A   Overcast
7:14 AM 0.1 °F -19.2 °F -5.8 °F 76% 30.35 in 10.0 mi North 15.0 mph 20.7 mph N/A   Overcast
7:35 AM 0.3 °F -17.5 °F -5.8 °F 75% 30.36 in 5.0 mi North 12.7 mph - N/A   Haze
7:54 AM 0.3 °F -19.0 °F -5.8 °F 75% 30.36 in 4.0 mi North 15.0 mph 19.6 mph N/A   Haze
8:14 AM 0.3 °F -18.3 °F -5.8 °F 75% 30.37 in 10.0 mi North 13.8 mph 17.3 mph N/A   Overcast
8:34 AM 0.5 °F -15.6 °F -6.3 °F 73% 30.38 in 10.0 mi North 10.4 mph - N/A   Overcast
8:54 AM 0.5 °F -18.0 °F -5.8 °F 75% 30.38 in 3.0 mi North 13.8 mph 18.4 mph N/A Snow Light Snow
9:14 AM 1.0 °F -18.0 °F -4.9 °F 76% 30.39 in 2.0 mi NNW 15.0 mph - N/A Snow Light Snow
9:34 AM 1.2 °F -17.8 °F -4.9 °F 75% 30.39 in 2.5 mi North 15.0 mph - N/A Snow Light Snow
9:54 AM 1.4 °F -15.3 °F -4.7 °F 76% 30.40 in 2.0 mi NNW 11.5 mph - N/A Snow Light Snow
10:14 AM 1.2 °F -18.4 °F -5.1 °F 75% 30.40 in 2.5 mi NNW 16.1 mph - N/A Snow Light Snow
10:34 AM 1.4 °F -16.9 °F -5.1 °F 74% 30.41 in 4.0 mi NNW 13.8 mph - N/A Snow Light Snow
10:54 AM 1.8 °F -15.7 °F -5.3 °F 72% 30.41 in 5.0 mi NNW 12.7 mph - N/A   Haze
11:14 AM 2.3 °F -15.7 °F -4.9 °F 72% 30.41 in 3.0 mi NNW 13.8 mph - N/A   Haze
11:35 AM 2.1 °F -16.6 °F -4.9 °F 72% 30.41 in 3.0 mi NNW 15.0 mph - N/A   Haze
11:54 AM 2.3 °F -15.7 °F -4.7 °F 72% 30.41 in 5.0 mi NNW 13.8 mph 17.3 mph N/A   Haze
12:15 PM 2.5 °F -15.5 °F -4.7 °F 72% 30.40 in 5.0 mi NNW 13.8 mph 18.4 mph N/A   Haze
12:34 PM 3.0 °F -14.8 °F -4.0 °F 73% 30.40 in 5.0 mi NNW 13.8 mph 19.6 mph N/A   Haze
12:54 PM 3.2 °F -15.3 °F -4.0 °F 72% 30.40 in 5.0 mi NW 15.0 mph - N/A   Haze
1:15 PM 3.2 °F -14.6 °F -4.0 °F 72% 30.40 in 5.0 mi NW 13.8 mph - N/A   Haze
1:34 PM 3.0 °F -14.8 °F -4.0 °F 73% 30.40 in 4.0 mi NW 13.8 mph - N/A   Haze
1:54 PM 2.8 °F -15.0 °F -4.4 °F 72% 30.41 in 5.0 mi NW 13.8 mph - N/A   Haze
2:15 PM 3.2 °F -14.6 °F -4.0 °F 72% 30.41 in 4.0 mi NW 13.8 mph - N/A   Haze
2:34 PM 3.2 °F -13.9 °F -4.2 °F 71% 30.41 in 5.0 mi NW 12.7 mph - N/A   Haze
2:54 PM 3.7 °F -15.2 °F -4.5 °F 69% 30.41 in 7.0 mi NW 16.1 mph - N/A   Overcast
3:15 PM 3.6 °F -14.1 °F -4.9 °F 68% 30.42 in 7.0 mi NW 13.8 mph 19.6 mph N/A   Mostly Cloudy
3:34 PM 3.6 °F -14.8 °F -5.4 °F 66% 30.42 in 10.0 mi NW 15.0 mph - N/A   Scattered Clouds
3:54 PM 3.2 °F -13.9 °F -5.8 °F 66% 30.42 in 10.0 mi NW 12.7 mph - N/A   Scattered Clouds
4:15 PM 2.7 °F -15.3 °F -6.5 °F 66% 30.42 in 10.0 mi NW 13.8 mph - N/A   Clear
4:34 PM 2.3 °F -13.4 °F -6.0 °F 68% 30.43 in 10.0 mi NW 10.4 mph - N/A   Mostly Cloudy
4:54 PM 2.3 °F -14.2 °F -6.0 °F 68% 30.44 in 10.0 mi NW 11.5 mph - N/A   Overcast
5:14 PM 2.5 °F -14.8 °F -5.4 °F 70% 30.44 in 10.0 mi WNW 12.7 mph - N/A   Overcast
5:34 PM 1.9 °F -15.5 °F -6.0 °F 69% 30.44 in 10.0 mi NW 12.7 mph - N/A   Overcast
5:54 PM 0.9 °F -16.0 °F -5.6 °F 74% 30.44 in 10.0 mi WNW 11.5 mph - N/A   Mostly Cloudy
6:14 PM 0.1 °F -18.5 °F -6.0 °F 75% 30.44 in 10.0 mi WNW 13.8 mph - N/A   Mostly Cloudy
6:35 PM -0.4 °F -16.7 °F -6.7 °F 75% 30.45 in 10.0 mi NW 10.4 mph - N/A   Mostly Cloudy
6:54 PM -1.3 °F -17.8 °F -7.6 °F 75% 30.45 in 10.0 mi NW 10.4 mph - N/A   Scattered Clouds
7:15 PM -1.7 °F -16.2 °F -8.1 °F 74% 30.45 in 10.0 mi NW 8.1 mph - N/A   Scattered Clouds
7:34 PM -2.2 °F -15.6 °F -8.3 °F 75% 30.45 in 10.0 mi WNW 6.9 mph - N/A   Scattered Clouds
7:54 PM -2.4 °F -17.1 °F -8.3 °F 76% 30.45 in 10.0 mi WNW 8.1 mph - N/A   Scattered Clouds
8:15 PM -2.7 °F -18.6 °F -8.1 °F 78% 30.45 in 10.0 mi WNW 9.2 mph - N/A   Scattered Clouds
8:34 PM -2.9 °F -18.8 °F -8.3 °F 78% 30.45 in 10.0 mi NW 9.2 mph - N/A   Clear
8:55 PM -3.1 °F -20.1 °F -8.7 °F 77% 30.44 in 10.0 mi NW 10.4 mph - N/A   Clear
9:14 PM -3.3 °F -19.3 °F -8.9 °F 77% 30.44 in 10.0 mi NW 9.2 mph - N/A   Clear
9:34 PM -4.0 °F -21.2 °F -9.0 °F 79% 30.44 in 10.0 mi NW 10.4 mph - N/A   Clear
9:54 PM -4.9 °F -21.3 °F -9.4 °F 81% 30.44 in 10.0 mi WNW 9.2 mph - N/A   Clear
10:14 PM -4.9 °F -23.2 °F -9.4 °F 81% 30.43 in 10.0 mi NW 11.5 mph - N/A   Clear
10:35 PM -4.5 °F -22.8 °F -9.2 °F 80% 30.43 in 10.0 mi WNW 11.5 mph - N/A   Clear
10:54 PM -4.9 °F -23.2 °F -9.4 °F 81% 30.42 in 10.0 mi WNW 11.5 mph - N/A   Clear
11:14 PM -5.3 °F -21.7 °F -9.9 °F 80% 30.43 in 10.0 mi WNW 9.2 mph - N/A   Clear
11:34 PM -5.8 °F -22.4 °F -10.5 °F 80% 30.42 in 10.0 mi WNW 9.2 mph - N/A   Clear
11:55 PM -6.0 °F -24.6 °F -10.8 °F 79% 30.42 in 10.0 mi WNW 11.5 mph - N/A   Clear